Weather History for KSMQ - December, 2013

Change the Weather History Date:

Wednesday, December 25, 2013

  Actual Average Record
Temperature  
Mean Temperature 22 °F -  
Max Temperature 27 °F 39 °F 68 °F (1964)
Min Temperature 18 °F 20 °F -2 °F (1980)
Degree Days  
Heating Degree Days 42    
Moisture  
Dew Point 8 °F    
Average Humidity 51    
Maximum Humidity 60    
Minimum Humidity 41    
Precipitation  
Precipitation 0.00 in - - ()
Sea Level Pressure  
Sea Level Pressure 30.48 in    
Wind  
Wind Speed 7 mph (WNW)    
Max Wind Speed 14 mph    
Max Gust Speed 23 mph    
Visibility 10 miles    
Events      
Averages and records for this station are not official NWS values.
T = Trace of Precipitation, MM = Missing Value Source: NWS Daily Summary

Daily Weather History Graph

Daily Weather History Graph

Search for Another Location

Airport or City:

Trip Planner

Search our weather history database for the weather conditions in past years. The results will help you decide how hot, cold, wet, or windy it might be!

Date:

Astronomy

Dec. 25, 2013 Rise Set
Actual Time 7:20 AM EST 4:37 PM EST
Civil Twilight 6:49 AM EST 5:08 PM EST
Nautical Twilight 6:15 AM EST 5:42 PM EST
Astronomical Twilight 5:42 AM EST 6:15 PM EST
Moon No Moon Rise 11:41 AM EST (12/25)
Length of Visible Light 10h 18m
Length of Day
9h 16m
Waning Gibbous, 49% of the Moon is Illuminated
Dec 25
Waning Gibbous
Jan 1
New
Jan 7
First Quarter
Jan 15
Full
Jan 24
Last Quarter

Hourly Weather History & Observations

Time (EST) Temp. Windchill Dew Point Humidity Pressure Visibility Wind Dir Wind Speed Gust Speed Precip Events Conditions
12:53 AM 24.1 °F 12.0 °F 8.1 °F 51% 30.39 in 10.0 mi NW 13.8 mph - N/A   Clear
1:53 AM 23.0 °F 10.6 °F 8.1 °F 53% 30.41 in 10.0 mi NW 13.8 mph 23.0 mph N/A   Clear
2:53 AM 21.9 °F 11.7 °F 5.0 °F 48% 30.43 in 10.0 mi WNW 9.2 mph 19.6 mph N/A   Clear
3:53 AM 19.9 °F 9.3 °F 5.0 °F 52% 30.45 in 10.0 mi NW 9.2 mph - N/A   Clear
4:53 AM 19.0 °F - 5.0 °F 54% 30.47 in 10.0 mi Calm Calm - N/A   Clear
5:53 AM 19.0 °F 10.0 °F 5.0 °F 54% 30.47 in 10.0 mi NNW 6.9 mph - N/A   Clear
6:53 AM 18.0 °F 8.7 °F 5.0 °F 57% 30.50 in 10.0 mi NNW 6.9 mph - N/A   Clear
7:53 AM 18.0 °F 12.7 °F 5.0 °F 57% 30.52 in 10.0 mi Variable 3.5 mph - N/A   Clear
8:53 AM 19.9 °F 9.3 °F 5.0 °F 52% 30.54 in 10.0 mi NNW 9.2 mph - N/A   Clear
9:53 AM 21.0 °F 10.6 °F 3.9 °F 48% 30.53 in 10.0 mi North 9.2 mph - N/A   Clear
10:53 AM 23.0 °F 17.0 °F 3.9 °F 44% 30.53 in 10.0 mi Variable 4.6 mph - N/A   Clear
11:53 AM 25.0 °F - 5.0 °F 43% 30.50 in 10.0 mi Calm Calm - N/A   Clear
12:53 PM 25.0 °F 20.7 °F 7.0 °F 46% 30.49 in 10.0 mi SSW 3.5 mph - N/A   Clear
1:53 PM 27.0 °F 23.0 °F 6.1 °F 41% 30.49 in 10.0 mi Variable 3.5 mph - N/A   Clear
2:53 PM 27.0 °F - 6.1 °F 41% 30.49 in 10.0 mi Calm Calm - N/A   Partly Cloudy
3:53 PM 27.0 °F - 8.1 °F 45% 30.49 in 10.0 mi Calm Calm - N/A   Clear
4:53 PM 26.1 °F 20.5 °F 10.0 °F 51% 30.49 in 10.0 mi South 4.6 mph - N/A   Clear
5:53 PM 26.1 °F - 10.0 °F 51% 30.50 in 10.0 mi Calm Calm - N/A   Clear
6:53 PM 26.1 °F 21.9 °F 10.9 °F 53% 30.49 in 10.0 mi SE 3.5 mph - N/A   Clear
7:53 PM 26.1 °F - 12.0 °F 55% 30.49 in 10.0 mi Calm Calm - N/A   Clear
8:53 PM 26.1 °F 21.9 °F 12.0 °F 55% 30.48 in 10.0 mi SE 3.5 mph - N/A   Partly Cloudy
9:53 PM 26.1 °F 21.9 °F 10.9 °F 53% 30.47 in 10.0 mi SSE 3.5 mph - N/A   Partly Cloudy
10:53 PM 26.1 °F 21.9 °F 12.0 °F 55% 30.45 in 10.0 mi South 3.5 mph - N/A   Partly Cloudy
11:53 PM 26.1 °F - 14.0 °F 60% 30.43 in 10.0 mi Calm Calm - N/A   Clear